Vertical_Velocity
1 -0 -2 5 -1 -1 2 2 1 1 -0 -1 -1 -1 1 0 -1 -1 -0 1 -1 -0 1 -1 -0 0 0 1 0 -0 0 -0 -1 -1 -3 -1 -1 -0 -1 -3 -1 -2 2 -1 2
4 5 2 7 0 2 2 1 0 1 1 1 0 0 0 -0 1 -1 0 -1 -0 -0 -0 -0 -1 -0 1 1 1 0 -0 -0 1 -1 -3 -2 -1 -2 -3 -3 0 -5 1 3 2
3 3 1 9 1 0 2 0 2 0 0 0 1 0 1 0 -1 -0 -1 -0 -1 -1 0 -0 0 1 1 0 -0 0 -1 0 -1 1 -0 -0 -2 -10 4 -0 0 2 -2 -3 -1
3 4 4 5 -0 -0 2 0 1 -0 0 1 0 0 1 0 -4 1 1 0 -0 -0 0 0 -0 -1 -0 1 -1 -1 -0 1 -1 -1 1 1 -2 4 1 3 5 2 4 3 -0
1 -2 8 3 -1 0 2 1 2 1 2 1 -0 -0 -0 0 0 0 1 1 1 1 1 -1 1 1 1 -0 0 -0 -0 0 -1 1 -2 -0 -6 -5 1 1 0 1 1 2 2
-0 -3 8 1 0 0 3 3 1 1 1 1 1 0 -0 -0 -0 -0 1 0 0 -1 2 -0 0 -1 -0 -0 1 -0 -0 -0 0 -0 -2 0 -11 1 3 -0 -1 0 2 2 2
-2 6 4 0 -1 -1 -0 1 0 0 2 0 -0 -0 0 0 1 0 0 1 2 1 -0 0 -0 -1 -0 0 0 1 0 0 0 -1 -0 -3 -3 -1 1 2 1 2 2 0 0
1 1 -0 -1 -1 0 0 1 -0 0 0 0 1 1 1 0 1 1 1 1 1 -0 -0 -0 -1 0 0 1 0 1 1 -1 -1 -2 1 -1 -4 0 -0 1 -1 -1 -0 -0 0
2 2 1 0 -1 -1 -0 1 -0 1 1 1 0 1 2 0 -0 1 0 1 -0 0 -0 -1 1 2 0 1 -1 0 1 -0 -3 -2 1 -0 2 -1 -2 -3 -1 1 1 1 1
2 1 0 -1 0 0 1 1 1 1 0 2 2 1 0 1 -0 0 1 0 -0 -0 1 0 0 1 0 -2 1 0 -1 -0 -1 -2 2 3 1 2 -0 -1 -2 -2 -2 -1 -1
0 1 1 1 1 2 2 2 1 1 3 4 2 1 0 1 1 -1 0 -0 0 -0 -0 -1 -0 1 0 -0 -0 1 0 -1 -1 -4 -0 -1 2 1 -1 2 0 -2 -2 -2 -1
-2 -1 -0 -0 1 1 0 0 1 -1 -1 1 1 -0 0 0 0 1 0 1 -0 -1 -1 -1 0 -1 0 1 1 1 1 -2 -2 -2 -2 1 5 3 1 -2 -3 -3 0 1 -0
-0 -3 -3 -2 -0 -1 -1 -1 -1 -0 1 0 -0 -0 0 -0 -1 -1 -2 -1 0 -1 -0 -1 0 1 1 1 0 -0 1 -1 -1 -3 -2 -3 2 -2 -3 -3 -4 -2 -2 -1 -0
1 1 0 0 1 -2 1 0 0 -0 -2 -1 -1 -0 1 0 -0 -1 -1 -0 -2 0 0 -1 2 0 -1 -0 1 -0 -2 -2 -0 -1 -4 1 -5 1 -1 -3 -3 2 3 1 1
-0 -1 0 -1 2 1 -1 -1 -2 -1 0 0 -1 2 -1 -3 -0 -2 0 1 -1 -0 0 3 -0 -1 -1 0 1 1 -1 -1 -1 -2 -3 -4 -8 8 2 1 3 4 3 4 2
0 -0 -2 0 -1 -1 -1 -0 -1 -2 -2 -1 -0 -1 -1 -0 -0 1 1 1 0 -0 1 2 1 -0 -0 -1 2 -0 -1 0 0 -2 -2 -3 -1 17 3 0 -1 1 0 -1 -1
1 1 0 -1 -1 -1 -0 -1 -2 -1 0 1 -0 0 -0 1 -0 -0 0 0 -1 0 1 1 1 -2 -1 1 0 1 1 -6 -6 0 2 3 -2 7 4 -3 -2 -2 -1 -4 -3
2 2 1 1 0 0 0 -0 0 1 -1 1 -1 -0 0 1 0 1 -0 -0 0 0 -1 1 1 -0 2 1 2 -1 -3 -3 -8 -3 2 -6 -4 -2 -1 -3 -1 -1 -1 1 -1
4 3 1 1 1 1 1 1 1 0 1 1 -1 -0 0 1 1 1 0 -1 -1 0 -1 -2 2 1 -0 1 -1 -1 -1 -0 -2 3 2 4 4 5 -7 -2 -2 -1 -2 -2 -4
2 2 3 3 1 1 1 2 2 1 1 1 1 1 0 1 1 0 0 1 -0 -0 1 -0 -0 -2 0 -0 -1 -0 -1 -1 1 -9 -8 -1 1 3 -2 -5 -3 -3 -3 -1 -2
1 1 2 2 2 2 1 2 2 1 1 0 1 1 1 1 0 1 2 -0 1 1 1 -1 2 1 -0 1 0 2 1 0 -1 1 -9 -13 12 -3 -4 -2 -3 -3 -3 -0 -3
-0 -1 2 1 1 1 2 2 2 1 1 0 1 2 1 -0 -0 1 1 1 1 -0 -1 -2 -0 -0 -0 1 -1 -1 -3 -1 -3 0 2 -4 16 -3 -5 -5 1 -2 -4 -5 -4
3 3 2 0 1 1 1 1 1 2 2 3 2 1 2 2 1 1 1 -0 -0 -1 0 1 2 0 -2 -1 -0 2 -0 -2 -3 -1 13 -6 6 3 -10 -4 -1 -4 -1 -2 -5
-1 1 2 2 1 1 2 2 1 2 1 2 2 2 2 1 0 2 -1 0 -0 1 0 -2 1 -2 -4 -2 -1 -1 -2 -0 0 -1 -10 21 -9 22 -17 -7 -4 -3 -4 -3 -2
-1 -1 -1 -0 1 1 1 0 1 1 1 0 0 0 -1 -0 -1 0 1 2 2 3 -1 -2 1 -1 -3 -0 -1 4 -1 -5 -2 -1 -7 13 -8 -4 3 -0 5 1 -0 2 3
3 1 -1 -0 0 -0 0 0 0 1 2 0 1 1 1 1 -0 0 0 -1 2 2 -2 0 -4 -3 7 -4 -4 7 0 -2 -3 8 -2 -9 -3 -18 2 -1 1 -1 -4 -3 -3
-1 0 1 1 0 -1 -1 -1 -0 0 1 -0 -0 0 1 -0 -0 -1 -0 -1 1 -1 -1 1 -2 -2 3 -1 -6 4 5 1 -7 4 -6 -3 1 1 1 1 6 -1 -4 -4 -4
Height
5725 5736 5748 5759 5772 5784 5796 5807 5817 5826 5834 5842 5849 5855 5860 5865 5869 5873 5878 5882 5885 5889 5892 5894 5896 5897 5899 5900 5901 5902 5903 5903 5904 5904 5904 5904 5903 5904 5901 5899 5900 5900 5902 5902 5903
5726 5736 5747 5759 5773 5785 5796 5807 5816 5825 5834 5841 5847 5853 5859 5863 5868 5872 5877 5880 5883 5887 5889 5892 5894 5895 5897 5898 5900 5901 5901 5900 5901 5902 5902 5901 5901 5900 5896 5893 5897 5896 5898 5898 5898
5727 5737 5748 5760 5774 5786 5797 5808 5817 5825 5833 5841 5847 5852 5858 5863 5866 5870 5875 5879 5882 5885 5888 5889 5892 5894 5895 5896 5898 5898 5898 5898 5897 5898 5899 5899 5898 5893 5892 5894 5894 5893 5892 5893 5894
5731 5741 5752 5764 5777 5789 5799 5809 5818 5826 5834 5841 5847 5852 5857 5862 5867 5870 5874 5878 5881 5884 5886 5888 5890 5891 5893 5894 5895 5896 5895 5895 5896 5896 5897 5896 5893 5886 5891 5891 5891 5891 5890 5889 5889
5737 5748 5756 5768 5781 5792 5802 5811 5820 5828 5835 5841 5847 5852 5857 5862 5866 5869 5872 5876 5879 5882 5884 5886 5888 5889 5891 5892 5893 5893 5893 5892 5892 5892 5893 5891 5887 5886 5887 5887 5886 5885 5886 5886 5885
5747 5755 5763 5774 5785 5795 5805 5814 5821 5829 5835 5841 5847 5852 5857 5862 5865 5868 5871 5874 5877 5879 5882 5884 5886 5887 5889 5890 5890 5890 5889 5889 5889 5889 5890 5887 5882 5883 5885 5884 5883 5882 5882 5881 5880
5757 5763 5770 5780 5789 5799 5808 5816 5823 5830 5836 5842 5847 5852 5857 5861 5864 5867 5870 5872 5875 5878 5880 5882 5884 5885 5886 5887 5887 5887 5887 5885 5886 5886 5886 5884 5882 5880 5881 5881 5880 5879 5878 5876 5874
5765 5771 5779 5787 5795 5803 5812 5819 5826 5832 5837 5842 5847 5852 5856 5860 5863 5866 5869 5871 5874 5876 5878 5880 5881 5882 5883 5884 5884 5884 5883 5882 5882 5882 5883 5883 5881 5879 5878 5877 5876 5875 5873 5871 5870
5773 5778 5785 5792 5799 5807 5815 5822 5828 5833 5838 5843 5848 5852 5856 5860 5863 5866 5868 5871 5872 5874 5876 5878 5879 5880 5881 5881 5881 5881 5881 5879 5879 5879 5879 5879 5879 5877 5875 5873 5871 5870 5868 5867 5864
5780 5785 5791 5796 5804 5812 5819 5824 5830 5834 5839 5843 5848 5854 5856 5860 5862 5864 5866 5869 5871 5873 5875 5875 5876 5877 5877 5878 5878 5878 5878 5877 5875 5876 5875 5876 5875 5874 5872 5870 5867 5865 5863 5860 5858
5787 5791 5796 5802 5809 5817 5823 5828 5834 5838 5841 5846 5850 5853 5856 5858 5860 5863 5865 5867 5869 5871 5872 5873 5874 5874 5874 5874 5875 5875 5875 5873 5872 5871 5871 5870 5870 5870 5868 5865 5862 5859 5856 5853 5851
5795 5799 5804 5810 5816 5822 5827 5831 5836 5841 5844 5846 5849 5853 5855 5857 5860 5862 5864 5866 5867 5868 5869 5871 5871 5871 5871 5872 5872 5871 5871 5870 5869 5867 5867 5866 5866 5865 5863 5860 5857 5853 5850 5847 5844
5803 5808 5813 5817 5822 5827 5831 5835 5838 5841 5844 5847 5850 5853 5855 5858 5859 5861 5863 5864 5865 5865 5866 5867 5868 5868 5868 5868 5869 5868 5867 5866 5865 5862 5861 5859 5860 5859 5856 5852 5849 5845 5842 5838 5835
5809 5813 5818 5822 5827 5829 5833 5836 5839 5842 5845 5848 5850 5852 5854 5856 5858 5859 5860 5862 5862 5863 5864 5865 5865 5865 5865 5865 5865 5864 5863 5862 5860 5858 5856 5854 5851 5854 5849 5845 5840 5835 5832 5828 5825
5815 5818 5822 5825 5828 5831 5835 5837 5839 5842 5845 5849 5851 5853 5853 5855 5857 5857 5858 5859 5860 5861 5862 5863 5862 5862 5862 5861 5861 5860 5858 5857 5855 5852 5851 5847 5841 5844 5839 5834 5830 5826 5822 5819 5816
5821 5823 5826 5829 5831 5834 5836 5838 5841 5844 5846 5848 5849 5850 5851 5852 5854 5854 5855 5857 5857 5858 5858 5859 5859 5859 5858 5857 5856 5855 5853 5851 5850 5848 5846 5841 5835 5833 5827 5824 5821 5817 5813 5808 5803
5823 5825 5828 5830 5833 5835 5837 5839 5842 5843 5846 5848 5847 5848 5849 5850 5851 5852 5853 5854 5855 5856 5855 5856 5855 5855 5854 5853 5851 5849 5848 5845 5844 5841 5837 5832 5828 5826 5820 5815 5811 5806 5802 5796 5790
5825 5826 5828 5830 5832 5834 5836 5839 5840 5842 5843 5845 5846 5846 5847 5848 5849 5850 5850 5851 5851 5852 5852 5852 5853 5851 5850 5848 5846 5844 5843 5839 5832 5830 5828 5824 5820 5816 5812 5805 5800 5795 5790 5784 5777
5825 5827 5828 5830 5832 5834 5836 5837 5839 5840 5842 5843 5844 5844 5845 5846 5847 5847 5847 5848 5848 5849 5849 5848 5847 5846 5844 5842 5842 5840 5836 5832 5826 5822 5817 5815 5813 5808 5802 5793 5788 5783 5777 5771 5763
5827 5828 5829 5830 5831 5833 5835 5836 5837 5838 5839 5840 5841 5842 5842 5843 5844 5844 5844 5845 5845 5844 5844 5843 5842 5840 5839 5838 5836 5832 5828 5823 5818 5812 5806 5805 5803 5798 5789 5782 5776 5771 5764 5758 5749
5827 5828 5829 5830 5831 5832 5833 5834 5834 5835 5836 5838 5838 5839 5839 5840 5840 5841 5842 5841 5840 5839 5838 5838 5837 5836 5834 5831 5828 5825 5819 5815 5810 5806 5799 5792 5793 5786 5776 5770 5763 5758 5750 5743 5735
5826 5827 5828 5829 5830 5830 5831 5831 5832 5833 5833 5834 5835 5835 5835 5836 5836 5836 5836 5835 5835 5834 5833 5831 5830 5828 5826 5823 5819 5815 5811 5806 5801 5797 5792 5783 5784 5773 5768 5758 5751 5744 5736 5727 5719
5826 5826 5826 5827 5828 5828 5829 5829 5830 5830 5830 5831 5831 5831 5831 5831 5832 5831 5831 5830 5829 5828 5826 5825 5823 5820 5817 5816 5811 5806 5801 5796 5791 5786 5782 5774 5771 5762 5754 5748 5741 5731 5723 5713 5702
5824 5824 5825 5825 5825 5826 5826 5827 5827 5827 5827 5827 5827 5827 5827 5827 5827 5827 5826 5825 5823 5821 5818 5815 5814 5812 5807 5803 5799 5796 5791 5786 5781 5774 5768 5768 5758 5754 5740 5735 5727 5719 5709 5701 5692
5821 5821 5822 5822 5823 5823 5823 5824 5823 5824 5823 5823 5823 5822 5822 5822 5821 5820 5818 5817 5815 5812 5809 5806 5804 5801 5797 5793 5789 5785 5780 5773 5769 5762 5756 5754 5747 5739 5731 5722 5714 5706 5696 5685 5673
5817 5817 5818 5818 5818 5818 5818 5818 5818 5818 5818 5817 5817 5816 5815 5814 5812 5811 5809 5807 5805 5803 5799 5796 5792 5789 5788 5783 5778 5774 5769 5764 5759 5752 5744 5738 5735 5726 5719 5709 5700 5691 5679 5670 5660
5812 5812 5812 5812 5812 5813 5813 5812 5812 5811 5811 5809 5808 5807 5806 5805 5803 5801 5799 5797 5794 5791 5788 5785 5780 5776 5774 5772 5767 5764 5757 5750 5747 5741 5732 5727 5720 5712 5706 5696 5687 5676 5665 5655 5643